User: anonymous   Login
Location: Unspecified
(0.0000°N, 0.0000°E)
Time: 13:04:23
(UTC+00:00)
Language:

NNS O-32 - Orbit

View from above orbital plane
View from above orbital plane
View from above satellite
View from above satellite

Ground track
Ground track

The orbit data is extracted from the following two-line orbital elements,

1 19071U 88033B   18347.89035669 +.00000067 +00000-0 +11510-3 0  9993
2 19071 090.3689 292.8496 0190422 075.3511 341.9408 13.27618169483654
Epoch (UTC): 13 December 2018 21:22:06
Eccentricity: 0.0190422
inclination: 90.3689°
perigee height: 1012 km
apogee height: 1299 km
right ascension of ascending node: 292.8496°
argument of perigee: 75.3511°
revolutions per day: 13.27618169
mean anomaly at epoch: 341.9408°
orbit number at epoch: 48365

The dashed part of the orbit path shows where the satellite is in the earth's shadow,  

DLR